• en Suisse
  • Liste des pays
  • À 7 jours
  • Température de l'eau
  • Carte satellitaire
  • Carte météo
  • Widgets météo
  • user-avatar
    Se connecter

    Météo par heure à Seredynky

    Ce jour, 25 Septembre, Mardi

    Heure Température Précipitation Vent Pression Humidité
    00:00 +4°C° 0 mm 7 m/s 732 mmHg 74%
    01:00 +5°C° 0 mm 8 m/s 733 mmHg 75%
    02:00 +6°C° 0 mm 5 m/s 733 mmHg 79%
    03:00 +5°C° 0.1 mm 6 m/s 733 mmHg 79%
    04:00 +4°C° 0.1 mm 7 m/s 734 mmHg 80%
    05:00 +4°C° 0.1 mm 8 m/s 734 mmHg 80%
    06:00 +4°C° 0 mm 8 m/s 734 mmHg 80%
    07:00 +4°C° 0 mm 8 m/s 735 mmHg 79%
    08:00 +4°C° 0 mm 8 m/s 736 mmHg 79%
    09:00 +4°C° 0 mm 8 m/s 736 mmHg 74%
    10:00 +5°C° 0 mm 8 m/s 737 mmHg 70%
    11:00 +6°C° 0 mm 8 m/s 737 mmHg 66%
    12:00 +7°C° 0.3 mm 8 m/s 737 mmHg 64%
    13:00 +7°C° 0.3 mm 8 m/s 738 mmHg 61%
    14:00 +9°C° 0 mm 8 m/s 738 mmHg 59%
    15:00 +8°C° 0.2 mm 7 m/s 738 mmHg 61%
    16:00 +8°C° 0.2 mm 7 m/s 739 mmHg 63%
    17:00 +8°C° 0.2 mm 7 m/s 739 mmHg 64%
    18:00 +7°C° 0 mm 6 m/s 739 mmHg 69%
    19:00 +6°C° 0 mm 5 m/s 740 mmHg 73%
    20:00 +4°C° 0 mm 4 m/s 740 mmHg 77%
    21:00 +4°C° 0 mm 4 m/s 741 mmHg 78%
    22:00 +4°C° 0 mm 4 m/s 741 mmHg 79%
    23:00 +3°C° 0 mm 5 m/s 742 mmHg 80%

    Demain, 26 Septembre, Mercredi

    Heure Température Précipitation Vent Pression Humidité
    00:00 +3°C° 0 mm 4 m/s 742 mmHg 81%
    01:00 +3°C° 0 mm 4 m/s 743 mmHg 81%
    02:00 +1°C° 0 mm 4 m/s 743 mmHg 82%
    03:00 +1°C° 0 mm 4 m/s 743 mmHg 83%
    04:00 +1°C° 0 mm 4 m/s 744 mmHg 85%
    05:00 +1°C° 0 mm 3 m/s 744 mmHg 86%
    06:00 +1°C° 0 mm 4 m/s 744 mmHg 83%
    07:00 +3°C° 0 mm 4 m/s 744 mmHg 80%
    08:00 +3°C° 0 mm 4 m/s 745 mmHg 77%
    09:00 +5°C° 0 mm 4 m/s 745 mmHg 70%
    10:00 +7°C° 0 mm 4 m/s 745 mmHg 64%
    11:00 +8°C° 0 mm 4 m/s 745 mmHg 57%
    12:00 +10°C° 0 mm 4 m/s 745 mmHg 53%
    13:00 +11°C° 0 mm 4 m/s 745 mmHg 49%
    14:00 +11°C° 0 mm 4 m/s 744 mmHg 46%
    15:00 +11°C° 0 mm 3 m/s 744 mmHg 48%
    16:00 +11°C° 0 mm 3 m/s 743 mmHg 50%
    17:00 +10°C° 0 mm 3 m/s 743 mmHg 53%
    18:00 +9°C° 0 mm 2 m/s 743 mmHg 55%
    19:00 +8°C° 0 mm 2 m/s 743 mmHg 57%
    20:00 +7°C° 0 mm 2 m/s 742 mmHg 59%
    21:00 +7°C° 0 mm 3 m/s 742 mmHg 57%
    22:00 +7°C° 0 mm 3 m/s 742 mmHg 55%
    23:00 +7°C° 0 mm 3 m/s 742 mmHg 53%

    Après-demain, 27 Septembre, Jeudi

    Heure Température Précipitation Vent Pression Humidité
    00:00 +6°C° 0.1 mm 4 m/s 741 mmHg 56%
    01:00 +6°C° 0.1 mm 4 m/s 741 mmHg 59%
    02:00 +6°C° 0.1 mm 4 m/s 741 mmHg 62%
    03:00 +6°C° 0.1 mm 4 m/s 740 mmHg 63%
    04:00 +6°C° 0.1 mm 4 m/s 740 mmHg 63%
    05:00 +7°C° 0.1 mm 5 m/s 739 mmHg 63%
    06:00 +7°C° 0 mm 5 m/s 739 mmHg 60%
    07:00 +8°C° 0 mm 5 m/s 739 mmHg 56%
    08:00 +8°C° 0 mm 6 m/s 739 mmHg 53%
    09:00 +9°C° 0 mm 6 m/s 739 mmHg 52%
    10:00 +10°C° 0 mm 6 m/s 739 mmHg 51%
    11:00 +11°C° 0 mm 6 m/s 739 mmHg 50%
    12:00 +11°C° 0 mm 7 m/s 739 mmHg 50%
    13:00 +12°C° 0 mm 7 m/s 738 mmHg 51%
    14:00 +14°C° 0 mm 7 m/s 738 mmHg 52%
    15:00 +14°C° 0 mm 6 m/s 738 mmHg 56%
    16:00 +14°C° 0 mm 6 m/s 738 mmHg 59%
    17:00 +14°C° 0 mm 5 m/s 737 mmHg 63%
    18:00 +13°C° 0 mm 5 m/s 737 mmHg 65%
    19:00 +12°C° 0 mm 5 m/s 737 mmHg 66%
    20:00 +11°C° 0 mm 4 m/s 737 mmHg 68%
    21:00 +10°C° 0 mm 4 m/s 737 mmHg 68%
    22:00 +10°C° 0 mm 4 m/s 737 mmHg 68%
    23:00 +9°C° 0 mm 3 m/s 737 mmHg 69%

    28 Septembre, Vendredi

    Heure Température Précipitation Vent Pression Humidité
    00:00 +9°C° 0 mm 3 m/s 737 mmHg 69%
    01:00 +9°C° 0 mm 3 m/s 736 mmHg 70%
    02:00 +8°C° 0 mm 3 m/s 736 mmHg 71%
    03:00 +8°C° 0 mm 3 m/s 735 mmHg 71%
    04:00 +8°C° 0 mm 3 m/s 735 mmHg 72%
    05:00 +8°C° 0 mm 3 m/s 734 mmHg 72%
    06:00 +9°C° 0 mm 3 m/s 734 mmHg 71%
    07:00 +10°C° 0 mm 3 m/s 734 mmHg 70%
    08:00 +11°C° 0 mm 3 m/s 734 mmHg 68%
    09:00 +13°C° 0 mm 3 m/s 733 mmHg 63%
    10:00 +15°C° 0 mm 4 m/s 733 mmHg 57%
    11:00 +19°C° 0 mm 4 m/s 733 mmHg 51%
    12:00 +19°C° 0 mm 4 m/s 733 mmHg 49%
    13:00 +20°C° 0 mm 4 m/s 732 mmHg 47%
    14:00 +21°C° 0 mm 5 m/s 732 mmHg 45%
    15:00 +20°C° 0 mm 4 m/s 732 mmHg 49%
    16:00 +20°C° 0 mm 3 m/s 731 mmHg 53%
    17:00 +19°C° 0 mm 3 m/s 731 mmHg 57%
    18:00 +17°C° 0 mm 3 m/s 731 mmHg 61%
    19:00 +15°C° 0 mm 2 m/s 731 mmHg 65%
    20:00 +14°C° 0 mm 2 m/s 731 mmHg 70%
    21:00 +13°C° 0 mm 2 m/s 731 mmHg 71%
    22:00 +13°C° 0 mm 2 m/s 731 mmHg 72%
    23:00 +13°C° 0 mm 2 m/s 732 mmHg 73%

    29 Septembre, Samedi

    Heure Température Précipitation Vent Pression Humidité
    00:00 +12°C° 0 mm 2 m/s 732 mmHg 77%
    01:00 +12°C° 0 mm 2 m/s 732 mmHg 81%
    02:00 +10°C° 0 mm 2 m/s 732 mmHg 85%
    03:00 +10°C° 0 mm 2 m/s 732 mmHg 86%
    04:00 +10°C° 0 mm 2 m/s 732 mmHg 88%
    05:00 +10°C° 0 mm 2 m/s 732 mmHg 89%
    06:00 +10°C° 0 mm 2 m/s 732 mmHg 88%
    07:00 +10°C° 0 mm 2 m/s 732 mmHg 88%
    08:00 +10°C° 0 mm 2 m/s 733 mmHg 87%
    09:00 +10°C° 0.2 mm 3 m/s 733 mmHg 86%
    10:00 +10°C° 0.2 mm 3 m/s 733 mmHg 84%
    11:00 +11°C° 0.2 mm 3 m/s 734 mmHg 83%
    12:00 +11°C° 0.3 mm 3 m/s 734 mmHg 81%
    13:00 +11°C° 0.3 mm 3 m/s 734 mmHg 80%
    14:00 +11°C° 0.3 mm 4 m/s 734 mmHg 79%
    15:00 +11°C° 0.2 mm 3 m/s 734 mmHg 79%
    16:00 +11°C° 0.2 mm 3 m/s 734 mmHg 79%
    17:00 +10°C° 0.2 mm 2 m/s 734 mmHg 79%
    18:00 +10°C° 0.1 mm 2 m/s 735 mmHg 80%
    19:00 +10°C° 0.1 mm 2 m/s 735 mmHg 80%
    20:00 +10°C° 0.1 mm 2 m/s 736 mmHg 81%
    21:00 +9°C° 0 mm 2 m/s 736 mmHg 81%
    22:00 +9°C° 0 mm 2 m/s 736 mmHg 81%
    23:00 +9°C° 0 mm 2 m/s 736 mmHg 82%

    30 Septembre, Dimanche

    Heure Température Précipitation Vent Pression Humidité
    00:00 +9°C° 0 mm 2 m/s 736 mmHg 82%
    01:00 +9°C° 0 mm 2 m/s 737 mmHg 82%
    02:00 +9°C° 0 mm 2 m/s 737 mmHg 82%
    03:00 +9°C° 0 mm 2 m/s 737 mmHg 84%
    04:00 +8°C° 0 mm 2 m/s 737 mmHg 85%
    05:00 +8°C° 0 mm 2 m/s 737 mmHg 86%
    06:00 +8°C° 0 mm 2 m/s 737 mmHg 85%
    07:00 +9°C° 0 mm 3 m/s 737 mmHg 85%
    08:00 +9°C° 0 mm 3 m/s 737 mmHg 84%
    09:00 +11°C° 0 mm 3 m/s 737 mmHg 78%
    10:00 +13°C° 0 mm 3 m/s 737 mmHg 72%
    11:00 +14°C° 0 mm 3 m/s 737 mmHg 66%
    12:00 +16°C° 0 mm 3 m/s 737 mmHg 63%
    13:00 +17°C° 0 mm 3 m/s 737 mmHg 61%
    14:00 +18°C° 0 mm 3 m/s 736 mmHg 58%
    15:00 +17°C° 0 mm 3 m/s 736 mmHg 61%
    16:00 +17°C° 0 mm 2 m/s 736 mmHg 64%
    17:00 +16°C° 0 mm 2 m/s 735 mmHg 67%
    18:00 +15°C° 0 mm 2 m/s 735 mmHg 71%
    19:00 +14°C° 0 mm 2 m/s 735 mmHg 76%
    20:00 +12°C° 0 mm 2 m/s 735 mmHg 80%
    21:00 +11°C° 0 mm 3 m/s 735 mmHg 82%
    22:00 +11°C° 0 mm 3 m/s 735 mmHg 83%
    23:00 +10°C° 0 mm 3 m/s 735 mmHg 85%
    Voir plus